Regional Weather Roundup
Issued by NWS

Home | Current Version | Previous Version | Graphics & Text | Print | Product List | Glossary On
Versions: 1 2 3 4 5 6 7 8 9 10 11 12 13 14 15 16 17 18 19 20 21 22 23 24 25 26 27 28 29 30 31 32 33 34 35 36 37 38 39 40 41 42 43 44 45 46 47 48 49
000
ASUS45 KSLC 262210
RWRUT

UTAH REGIONAL WEATHER ROUNDUP
NATIONAL WEATHER SERVICE SALT LAKE CITY UT
400 PM MDT THU MAR 26 2015

UTZ001>011-023>025-262300-

NORTHERN UTAH

CITY           SKY/WX    TMP DP  RH WIND       PRES   REMARKS
BRIGHAM CITY   SUNNY     58  26  28 S8        30.36F
HILL AFB       SUNNY     56  24  29 NW8       30.35F
LOGAN          SUNNY     58  30  34 SW3       30.35F
OGDEN          SUNNY     56  24  29 E5        30.35F
PROVO AIRPORT  MOSUNNY   55  27  33 VRB6      30.36F
SALT LAKE CITY PTSUNNY   59  26  28 VRB7      30.35F
VERNAL         SUNNY     60  18  19 VRB3      30.23F
WENDOVER       SUNNY     61  27  27 SE6       30.35F
HEBER CITY     SUNNY     61  27  27 SW12      30.31F
WEST JORDAN    SUNNY     57  30  35 NW9       30.37F

$$

UTZ012>022-026-027-262300-

SOUTHERN/CENTRAL UTAH

CITY           SKY/WX    TMP DP  RH WIND       PRES   REMARKS
BLANDING       SUNNY     62  17  17 SW12      30.33F
BRYCE CANYON   SUNNY     57  24  28 VRB3      30.35F
CEDAR CITY     SUNNY     62  21  20 VRB7      30.30F
DELTA          MOSUNNY   60  21  22 NE3       30.33F
HANKSVILLE     SUNNY     64  19  17 CALM      30.27F
MILFORD        SUNNY     62  25  24 NE16G25   30.32F
MOAB/CYNLANDS  SUNNY     64  11  12 S6        30.23F
PRICE          SUNNY     64  21  19 VRB5      30.25F
ST GEORGE      CLEAR     73  25  16 S3        30.22F

$$

REGIONAL REPORTS     COLORADO/ARIZONA

CITY           SKY/WX    TMP DP  RH WIND       PRES   REMARKS
CRAIG, CO      SUNNY     56  25  30 W9G16     30.26F
GRAND JUNCTION SUNNY     60  18  19 CALM      30.24F
RIFLE          SUNNY     60  22  23 CALM      30.23F
MONTROSE       SUNNY     60  18  19 NW9       30.28F
CORTEZ         SUNNY     67  16  14 N14G21    30.23S
PAGE, AZ       SUNNY     67  15  13 E3        30.27F
GRAND CANYON   SUNNY     63  14  15 VRB3      30.32F
KINGMAN        SUNNY     77  18  11 N8        30.18F
FLAGSTAFF      SUNNY     61   9  12 N3        30.32F

$$

REGIONAL REPORTS    NEVADA/IDAHO/WYOMING

CITY           SKY/WX    TMP DP  RH WIND       PRES   REMARKS
LAS VEGAS, NV  MOSUNNY   79  22  12 NE8       30.13F
ELY            SUNNY     65  22  19 NE6       30.33F
ELKO           SUNNY     64  30  27 W7        30.32F
POCATELLO, ID  MOSUNNY   59  32  36 W14       30.34F
BURLEY         SUNNY     60  34  37 W10       30.32F
EVANSTON, WY   SUNNY     57  28  33 W16G25    30.34S
ROCK SPRINGS   SUNNY     57  24  28 W22G31    30.24F
KEMMERER       MOSUNNY   46  30  53 W20G25    30.35S

$$



USA.gov is the U.S. government's official web portal to all federal, state and local government web resources and services.